Regional Weather Roundup
Issued by NWS

Home | Current Version | Previous Version | Text Only | Print | Product List | Glossary On
Versions: 1 2 3 4 5 6 7 8 9 10 11 12 13 14 15 16 17 18 19 20 21 22 23 24 25 26 27 28 29 30 31 32 33 34 35 36 37 38 39 40 41 42 43 44 45 46 47 48 49 50
000
ASUS43 KMKX 270311
RWRWI

WISCONSIN REGIONAL WEATHER ROUNDUP
NATIONAL WEATHER SERVICE MILWAUKEE/SULLIVAN WI
1000 PM CDT FRI AUG 26 2016

NOTE: "FAIR" INDICATES FEW OR NO CLOUDS BELOW 12,000 FEET WITH NO
SIGNIFICANT WEATHER AND/OR OBSTRUCTIONS TO VISIBILITY.

WIZ001-002-006>008-014>016-023>028-270400-
NORTHWEST WISCONSIN

CITY           SKY/WX    TMP DP  RH WIND       PRES   REMARKS
SUPERIOR ARPT  PTCLDY    57  54  91 S5        30.10S
ASHLAND        PTCLDY    57  53  86 S5        30.14S
HAYWARD        MOCLDY    56  54  93 CALM      30.15S
SIREN          CLOUDY    58  56  92 CALM      30.14R
CUMBERLAND     PTCLDY    59  55  88 CALM      30.15S
RICE LAKE      PTCLDY    58  56  91 CALM      30.17R FOG
CHETEK         NOT AVBL
LADYSMITH      PTCLDY    57  56  94 CALM      30.17S
EAU CLAIRE     CLOUDY    62  59  90 CALM      30.14R
MENOMONIE      CLOUDY    62  59  91 CALM      30.15R
NEW RICHMOND   CLOUDY    60  57  89 CALM      30.14S
OSCEOLA        CLOUDY    60  59  97 CALM      30.17R
$$

WIZ003>005-009-010-017-018-270400-
NORTH CENTRAL WISCONSIN

CITY           SKY/WX    TMP DP  RH WIND       PRES   REMARKS
MANITOWISH WTR NOT AVBL
ARBOR VITAE    PTCLDY    57  55  92 CALM      30.18R
WOODRUFF       PTCLDY    57  55  92 CALM      30.18R
RHINELANDER    MOCLDY    54  54 100 CALM      30.18S
EAGLE RIVER    PTCLDY    53  53 100 CALM      30.18R
LAND O LAKES   PTCLDY    50  50  99 CALM      30.19S
PHILLIPS       CLOUDY    54  54 100 CALM      30.16S
TOMAHAWK       CLOUDY    53  52  95 CALM      30.18R
MEDFORD        CLOUDY    55  55 100 CALM      30.17S
MERRILL        CLOUDY    57  57 100 CALM      30.18S
$$

WIZ029-030-035-036-043>047-270400-
CENTRAL WISCONSIN

CITY           SKY/WX    TMP DP  RH WIND       PRES   REMARKS
WAUSAU         MOCLDY    63  57  81 CALM      30.16R
MOSINEE        CLEAR     61  57  88 CALM      30.18R
MARSHFIELD     CLOUDY    62  57  83 CALM      30.16R
STEVENS POINT  CLOUDY    59  57  95 CALM      30.18R
WAUPACA        CLOUDY    64  62  94 CALM      30.17R
WAUTOMA        CLOUDY    64  61  90 CALM      30.17S
WISC RAPIDS    CLOUDY    61  59  93 CALM      30.18R
CAMP DOUGLAS   CLOUDY    62  61  95 E1        30.16R
$$

WIZ011>013-019>022-031-037>040-048>050-270400-
NORTHEAST WISCONSIN

CITY           SKY/WX    TMP DP  RH WIND       PRES   REMARKS
ANTIGO         CLOUDY    58  56  94 CALM      30.18S
SHAWANO        PTCLDY    65  58  78 CALM      30.16S
OCONTO         NOT AVBL
STURGEON BAY   CLOUDY    64  58  80 S5        30.17R
GREEN BAY      CLOUDY    62  62 100 CALM      30.16R
MANITOWOC      MOCLDY    62  57  83 CALM      30.18R
APPLETON       CLOUDY    66  55  68 CALM      30.16R
CLINTONVILLE   PTCLDY    61  57  88 CALM      30.16S
OSHKOSH        MOCLDY    65  60  84 S3        30.16F
$$

WIZ032>034-041-042-053>061-270400-
SOUTHWEST WISCONSIN

CITY           SKY/WX    TMP DP  RH WIND       PRES   REMARKS
LA CROSSE      LGT RAIN  68  62  81 E3        30.14R
SPARTA         CLOUDY    63  61  93 CALM      30.17R
VIROQUA        CLOUDY    63  61  93 NW3       30.16F
BOSCOBEL       LGT RAIN  65  64  97 NE3       30.14S
PRAIRIE DU CHI CLOUDY    64  62  90 CALM      30.13F
PLATTEVILLE    CLOUDY    66  64  94 NE7       30.14F
$$

WIZ056-057-062-063-064-067-068-270400-
SOUTH CENTRAL WISCONSIN

CITY           SKY/WX    TMP DP  RH WIND       PRES   REMARKS
REEDSBURG      NOT AVBL
BARABOO/DELLS  CLOUDY    64  61  91 E3        30.15F
LONE ROCK      CLOUDY    66  62  87 CALM      30.15F
MINERAL POINT  CLOUDY    66  61  82 NE6       30.14F
MADISON        MOCLDY    66  59  78 NE6       30.14F
MIDDLETON      CLOUDY    66  62  86 CALM      30.16F
WATERTOWN      CLOUDY    66  61  83 E6        30.15F
MONROE         CLOUDY    66  61  82 NE7       30.13F
JANESVILLE     NOT AVBL
$$

WIZ051-052-058>065-066-070>072-270400-
SOUTHEAST WISCONSIN

CITY           SKY/WX    TMP DP  RH WIND       PRES   REMARKS
MILWAUKEE      CLOUDY    69  59  70 NE6       30.15F
WAUKESHA       CLOUDY    64  55  72 NE3       30.17F
MILWAUKEE/TIMM PTCLDY    68  55  64 NE3       30.17F
RACINE         CLOUDY    67  59  75 NE5       30.17S
BURLINGTON     CLOUDY    64  60  87 CALM      30.16S
KENOSHA        CLOUDY    65  60  84 NE6       30.15F
FOND DU LAC    CLOUDY    62  59  90 S5        30.17S
SHEBOYGAN      PTCLDY    62  58  86 CALM      30.18R
WEST BEND      CLOUDY    64  59  82 CALM      30.17F
JUNEAU         CLOUDY    65  59  81 NE3       30.18F
$$

LSZ147-162-270400-
LAKE SUPERIOR

STATION/POSITION TIME  TEMP    WIND        PRES    WAVE
                       AIR SEA DIR/SP/G            HT/PER
                 (UTC) (F)     (DEG/KT/KT) (MB)    (FT/S)
W MID LAKE BUOY  0250   66 67  150/  6/  8 1020.1F   1
DEVILS ISLAND    0300   64     150/  7/  8 1020.1S
PORT WING        0240   64     140/  3/  7 1020.0R
SAXON HARBOR     0200   60     200/  5/  7 1020.0S
$$

LMZ867-665-643>646-270400-
LAKE MICHIGAN

STATION/POSITION TIME  TEMP    WIND        PRES    WAVE
                       AIR SEA DIR/SP/G            HT/PER
                 (UTC) (F)     (DEG/KT/KT) (MB)    (FT/S)
CHAMBERS ISLAND  0240   66      CALM  /  5 1021.0R
S GREEN BAY BUOY 0200   70 72  230/ 12/ 14 1020.5
N MID LAKE BUOY  0250   68 70  270/  2/  4 1020.7R   1/ 3
NORTHPORT PIER   0200   66     190/  2/  4 1020.3R
SISTER BAY       0237   64        CALM       N/A
ALGOMA LAKESHORE 0045          210/  6/  8   N/A
KEWAUNEE LAKESHO 0200   62                 1020.8
SHEBOYGAN LAKESH 0300   67     230/  5/  5 1021.2F
PORT WASHINGTON  0200   66     200/  2/  2 1022.4R
ATWATER BUOY     0300   60     300/  4/  6   N/A
MILWAUKEE LAKESH 0210   67      20/  2/  2   N/A
S MID LAKE BUOY  0250   71 75   50/ 10/ 12 1020.4F   1
KENOSHA   LAKESH 0300   70      60/  8/  8 1020.3F
$$

TC  - TEMPERATURE IN CELSIUS
VSB - VISIBILITY IN STATUTE MILES
WCI - WIND CHILL INDEX
HX  - HEAT INDEX




USA.gov is the U.S. government's official web portal to all federal, state and local government web resources and services.